カタログに戻る

AMC-21

運用中通信GEO
NORAD 33275·PAYLOAD·🇱🇺 Luxembourg

打ち上げ Aug 14, 2008 から Guiana Space Centre

Loading…

TLE

最新Source: Space-Track

元期: Sep 14, 2026, 21:08 UTC

1 33275U 08038B   26257.88092056 -.00000113  00000-0  00000-0 0  9995
2 33275   3.1785  78.9040 0009877  21.9837 314.6114  0.99011794 66355

AllMySatでAMC-21をリアルタイム追跡

Download on the App Store